sat.trackr.live / text

‹ back to catalog

STARLINK-1888

NORAD 47171 · 2020-088BB

PAYLOAD ACTIVE UNKNOWN

§ Identity

Operator
Country
US
Launch date
2020-11-25
Launch site
AFETR
Launch vehicle
Mass (kg)
RCS (m²)

Purposes: comms

External: N2YO · Heavens-Above · Gunter

§ Orbital elements

Epoch: 2026-05-25T01:30:45.014400Z

Period
92.00 min
Inclination
53.0469°
Eccentricity
0.0002740
Mean motion
15.65263938 rev/d
Perigee alt
370.6 km
Apogee alt
374.3 km
Semi-major
6,750.6 km
B*
6.8877e-4
RAAN
269.5615°
Arg perigee
299.8578°
Mean anomaly
60.2164°
Rev number
30,404

§ Raw data

STARLINK-18881 47171U 20088BB  26145.06302100  .00069689  00000+0  68877-3 0  99942 47171  53.0469 269.5615 0002740 299.8578  60.2164 15.65263938304042

JSON: /api/v1/satellites/47171 · /tle

For live sub-satellite position, see the globe view (requires WebGL).

§ Visibility from observer

Set your observer location to see the next 7 days of passes ≥ 10°. The values pass through the URL so the page stays shareable.

No JS? Fill the form by hand. The geolocation button needs JavaScript.